FW1874 Weather Reports


Display with metric or nautical units.
time (UTC)temp
F
wind
direction
speed
MPH
gust
MPH
rain 1hr
in
rain 24hr
in
rain mn
in
humidity
%
barometer
mb
20180220033303 55 182 3.0 5.0 0.06 0.45 0.45 100 1018.5
20180220033102 55 199 3.0 6.0 0.06 0.44 0.44 100 1018.5
20180220033003 55 197 2.0 6.0 0.06 0.44 0.44 100 1018.5
20180220032902 55 181 2.0 6.0 0.06 0.44 0.44 100 1018.4
20180220032703 55 199 2.0 6.0 0.06 0.44 0.44 100 1018.4
20180220032502 55 200 2.0 6.0 0.06 0.44 0.44 100 1018.4
20180220032303 55 208 3.0 6.0 0.07 0.44 0.44 100 1018.4
20180220032102 55 199 2.0 4.0 0.07 0.44 0.44 100 1018.4
20180220032003 55 192 2.0 4.0 0.07 0.44 0.44 100 1018.4
20180220031902 55 179 2.0 4.0 0.07 0.44 0.44 100 1018.4
20180220031703 55 195 2.0 4.0 0.07 0.44 0.44 100 1018.3
20180220031502 55 199 2.0 4.0 0.08 0.44 0.44 100 1018.4
20180220031303 55 195 2.0 4.0 0.08 0.44 0.44 100 1018.4
20180220031103 55 182 2.0 4.0 0.08 0.44 0.44 100 1018.4
20180220031003 55 181 2.0 4.0 0.08 0.44 0.44 100 1018.4
20180220030903 55 180 3.0 4.0 0.08 0.44 0.44 100 1018.5
20180220030703 55 182 2.0 4.0 0.09 0.44 0.44 100 1018.5
20180220030502 55 191 2.0 4.0 0.09 0.44 0.44 100 1018.5
20180220030303 55 173 2.0 4.0 0.09 0.44 0.44 100 1018.6
20180220030102 55 195 2.0 4.0 0.10 0.44 0.44 100 1018.6
20180220030002 55 192 2.0 4.0 0.10 0.44 0.44 100 1018.6
20180220025903 55 182 2.0 4.0 0.10 0.44 0.44 100 1018.6
20180220025703 55 196 2.0 3.0 0.09 0.43 0.43 100 1018.6
20180220025502 55 194 1.0 3.0 0.09 0.43 0.43 100 1018.7
20180220025303 55 183 2.0 4.0 0.09 0.43 0.43 100 1018.7
20180220025103 55 169 2.0 4.0 0.09 0.43 0.43 100 1018.7
20180220025003 55 169 2.0 4.0 0.09 0.43 0.43 100 1018.7
20180220024903 55 176 2.0 4.0 0.09 0.43 0.43 100 1018.7
20180220024702 55 195 2.0 4.0 0.09 0.42 0.42 100 1018.9
20180220024503 55 194 2.0 4.0 0.09 0.42 0.42 100 1018.8
20180220024302 55 184 2.0 4.0 0.09 0.42 0.42 100 1018.6
20180220024103 55 195 2.0 4.0 0.09 0.42 0.42 100 1018.6
20180220024003 55 195 2.0 4.0 0.08 0.41 0.41 100 1018.6
20180220023903 55 184 2.0 4.0 0.08 0.41 0.41 100 1018.7
20180220023703 55 194 2.0 4.0 0.08 0.41 0.41 100 1018.6
20180220023503 55 180 1.0 4.0 0.07 0.40 0.40 100 1018.7
20180220023302 55 188 2.0 4.0 0.07 0.40 0.40 100 1018.8
20180220023103 55 209 2.0 4.0 0.06 0.38 0.38 100 1018.8
20180220023003 55 205 2.0 4.0 0.06 0.38 0.38 100 1018.8
20180220022902 55 189 2.0 4.0 0.06 0.38 0.38 100 1018.8
20180220022702 55 195 2.0 3.0 0.06 0.38 0.38 100 1018.8
20180220022503 55 194 2.0 4.0 0.06 0.38 0.38 100 1018.8
20180220022303 55 209 2.0 4.0 0.05 0.37 0.37 100 1018.8
20180220022102 55 195 2.0 4.0 0.05 0.37 0.37 100 1018.7
20180220022002 55 195 2.0 4.0 0.05 0.37 0.37 100 1018.7
20180220021903 55 182 2.0 5.0 0.05 0.37 0.37 100 1018.7
20180220021702 55 208 2.0 6.0 0.05 0.37 0.37 100 1018.6
20180220021502 55 209 2.0 6.0 0.04 0.36 0.36 100 1018.7
20180220021303 55 185 2.0 6.0 0.04 0.36 0.36 100 1018.7
20180220021103 55 181 3.0 6.0 0.05 0.36 0.36 100 1018.7
20180220021003 55 185 3.0 6.0 0.05 0.36 0.36 100 1018.7
20180220020902 55 205 3.0 6.0 0.05 0.36 0.36 100 1018.8
20180220020702 55 200 2.0 4.0 0.05 0.36 0.36 100 1018.7
20180220020502 55 193 2.0 4.0 0.04 0.35 0.35 100 1018.8
20180220020302 55 195 2.0 4.0 0.04 0.35 0.35 100 1018.8
20180220020103 55 201 2.0 4.0 0.04 0.35 0.35 100 1018.8
20180220020003 55 204 2.0 4.0 0.03 0.34 0.34 100 1018.8
20180220015902 55 197 2.0 4.0 0.03 0.34 0.34 100 1018.9
20180220015703 55 202 2.0 4.0 0.03 0.34 0.34 100 1018.9
20180220015502 55 210 2.0 4.0 0.03 0.34 0.34 100 1018.9
20180220015303 55 194 1.0 4.0 0.03 0.34 0.34 100 1018.9
20180220015103 55 195 2.0 7.0 0.03 0.34 0.34 100 1018.8
20180220015002 55 197 2.0 7.0 0.03 0.34 0.34 100 1018.8
20180220014903 55 200 2.0 7.0 0.03 0.34 0.34 100 1018.8
20180220014702 55 179 2.0 7.0 0.02 0.33 0.33 100 1018.8
20180220014502 55 185 2.0 7.0 0.02 0.33 0.33 100 1018.8
20180220014303 55 193 4.0 7.0 0.02 0.33 0.33 100 1018.7
20180220014103 55 195 2.0 5.0 0.01 0.32 0.32 100 1018.7
20180220014004 55 197 2.0 5.0 0.01 0.32 0.32 100 1018.7
20180220013904 55 197 3.0 5.0 0.01 0.32 0.32 100 1018.7
20180220013703 55 193 4.0 5.0 0.01 0.32 0.32 100 1018.7
20180220013503 55 201 3.0 5.0 0.01 0.32 0.32 100 1018.6
20180220013303 55 196 3.0 5.0 0.01 0.32 0.32 100 1018.7
20180220013103 55 175 4.0 5.0 0.01 0.32 0.32 100 1018.6
20180220013003 55 177 4.0 5.0 0.01 0.32 0.32 100 1018.6
20180220012903 55 183 3.0 5.0 0.01 0.32 0.32 100 1018.7
20180220012703 55 189 2.0 4.0 0.01 0.32 0.32 100 1018.8
20180220012502 55 189 2.0 4.0 0.01 0.32 0.32 100 1018.6
20180220012303 54 204 2.0 4.0 0.01 0.32 0.32 100 1018.7
20180220012102 54 198 2.0 6.0 0.01 0.32 0.32 100 1018.7
20180220012003 54 195 2.0 6.0 0.01 0.32 0.32 100 1018.7
20180220011903 54 196 2.0 6.0 0.01 0.32 0.32 100 1018.6
20180220011703 54 191 2.0 6.0 0.01 0.32 0.32 100 1018.6
20180220011503 54 195 2.0 6.0 0.01 0.32 0.32 100 1018.6
20180220011303 54 212 3.0 6.0 0.01 0.32 0.32 100 1018.5
20180220011103 54 195 2.0 4.0 0.00 0.31 0.31 100 1018.5
20180220011003 54 187 2.0 4.0 0.00 0.31 0.31 100 1018.5
20180220010902 54 186 2.0 4.0 0.00 0.31 0.31 100 1018.5
20180220010703 54 195 3.0 4.0 0.00 0.31 0.31 100 1018.4
20180220010503 54 201 2.0 4.0 0.00 0.31 0.31 100 1018.4
20180220010302 54 210 2.0 5.0 0.00 0.31 0.31 100 1018.4
20180220010102 54 195 1.0 5.0 0.00 0.31 0.31 100 1018.4
20180220010002 54 195 1.0 5.0 0.00 0.31 0.31 100 1018.4
20180220005903 54 204 1.0 5.0 0.00 0.31 0.31 100 1018.4
20180220005702 54 203 2.0 6.0 0.00 0.31 0.31 100 1018.4
20180220005503 54 202 3.0 6.0 0.00 0.31 0.31 100 1018.3
20180220005303 54 208 2.0 6.0 0.01 0.31 0.31 100 1018.4
20180220005102 54 195 2.0 6.0 0.01 0.31 0.31 100 1018.3
20180220005003 54 196 2.0 6.0 0.01 0.31 0.31 100 1018.3
20180220004903 54 200 2.0 7.0 0.01 0.31 0.31 100 1018.4
20180220004703 54 205 3.0 7.0 0.01 0.31 0.31 100 1018.4
20180220004502 54 197 3.0 7.0 0.01 0.31 0.31 100 1018.4
20180220004303 54 192 3.0 7.0 0.01 0.31 0.31 100 1018.4
20180220004102 54 195 3.0 7.0 0.01 0.31 0.31 100 1018.4
20180220004003 54 193 3.0 7.0 0.01 0.31 0.31 100 1018.4
20180220003902 54 206 2.0 6.0 0.01 0.31 0.31 100 1018.4
20180220003703 54 197 3.0 6.0 0.01 0.31 0.31 100 1018.4
20180220003503 54 182 3.0 6.0 0.01 0.31 0.31 100 1018.3
20180220003302 54 213 2.0 6.0 0.01 0.31 0.31 100 1018.4
20180220003103 54 204 3.0 6.0 0.01 0.31 0.31 100 1018.3
20180220003003 54 204 4.0 6.0 0.01 0.31 0.31 100 1018.3
20180220002903 54 194 3.0 6.0 0.01 0.31 0.31 100 1018.3
20180220002703 54 204 3.0 6.0 0.01 0.31 0.31 100 1018.3
20180220002503 54 217 3.0 6.0 0.01 0.31 0.31 100 1018.2
20180220002303 54 203 3.0 6.0 0.01 0.31 0.31 100 1018.3
20180220002103 54 200 4.0 6.0 0.01 0.31 0.31 100 1018.3
20180220002003 54 201 4.0 6.0 0.01 0.31 0.31 100 1018.3
20180220001903 54 210 3.0 5.0 0.01 0.31 0.31 100 1018.3
20180220001702 54 211 2.0 6.0 0.02 0.31 0.31 100 1018.3
20180220001503 54 204 2.0 6.0 0.02 0.31 0.31 100 1018.4
20180220001303 54 190 3.0 6.0 0.02 0.31 0.31 100 1018.2
20180220001103 54 206 3.0 6.0 0.02 0.31 0.31 100 1018.3
20180220001002 54 202 3.0 6.0 0.02 0.31 0.31 100 1018.3
20180220000903 57 200 3.0 6.0 0.02 0.31 0.31 100 1018.2
20180220000702 57 201 2.0 6.0 0.03 0.31 0.31 100 1018.2
20180220000503 57 198 3.0 6.0 0.03 0.31 0.31 100 1018.2
20180220000303 53 183 2.0 6.0 0.04 0.31 0.31 100 1018.1
20180220000102 53 205 2.0 8.0 0.04 0.31 0.31 100 1018.1
20180220000002 53 197 2.0 8.0 0.04 0.31 0.31 100 1018.1
20180219235903 53 205 3.0 8.0 0.04 0.31 0.31 100 1018.1
20180219235703 53 189 3.0 8.0 0.06 0.31 0.31 100 1018.1
20180219235503 53 190 3.0 8.0 0.06 0.31 0.31 100 1018.1
20180219235302 52 187 4.0 8.0 0.06 0.30 0.30 100 1018.0
20180219235103 52 195 3.0 6.0 0.06 0.30 0.30 100 1018.1
20180219235002 52 195 3.0 5.0 0.06 0.30 0.30 100 1018.1
20180219234903 52 190 3.0 5.0 0.07 0.30 0.30 100 1018.1
20180219234702 52 199 2.0 5.0 0.07 0.30 0.30 100 1018.2
20180219234503 52 164 2.0 5.0 0.07 0.30 0.30 100 1018.1
20180219234303 51 190 2.0 5.0 0.07 0.30 0.30 100 1018.2
20180219234103 51 189 2.0 5.0 0.07 0.30 0.30 100 1018.1
20180219234003 51 195 2.0 5.0 0.07 0.30 0.30 100 1018.1
20180219233902 51 213 2.0 5.0 0.08 0.30 0.30 100 1018.2
20180219233702 50 201 3.0 5.0 0.08 0.30 0.30 100 1018.1
20180219233503 50 198 2.0 4.0 0.08 0.30 0.30 100 1018.2
20180219233303 50 206 2.0 4.0 0.09 0.30 0.30 100 1018.0
20180219233102 49 202 2.0 4.0 0.09 0.30 0.30 100 1018.2
20180219233003 49 199 2.0 4.0 0.09 0.30 0.30 100 1018.2
20180219232903 49 172 2.0 4.0 0.10 0.30 0.30 100 1018.0
20180219232702 49 194 1.0 4.0 0.10 0.30 0.30 100 1018.2
20180219232503 49 201 1.0 4.0 0.10 0.30 0.30 100 1018.2
20180219232302 49 160 2.0 4.0 0.12 0.30 0.30 100 1018.1
20180219232103 48 175 1.0 3.0 0.12 0.30 0.30 100 1018.2
20180219232003 48 179 1.0 3.0 0.12 0.30 0.30 100 1018.2
20180219231902 48 173 1.0 3.0 0.13 0.30 0.30 100 1018.2
20180219231703 48 171 1.0 3.0 0.12 0.33 0.29 100 1018.2
20180219231503 48 157 1.0 3.0 0.12 0.33 0.29 100 1018.2
20180219231302 48 142 1.0 3.0 0.13 0.33 0.29 100 1018.3
20180219231103 48 213 1.0 3.0 0.13 0.33 0.29 100 1018.4
20180219231003 48 210 1.0 3.0 0.13 0.33 0.29 100 1018.4
20180219230902 48 176 1.0 3.0 0.13 0.33 0.29 100 1018.4
20180219230702 48 163 1.0 3.0 0.12 0.32 0.28 100 1018.4
20180219230503 48 175 1.0 4.0 0.12 0.32 0.28 100 1018.4
20180219230302 48 174 1.0 4.0 0.13 0.32 0.28 100 1018.5
20180219230102 48 178 1.0 4.0 0.12 0.31 0.27 100 1018.5
20180219230004 48 176 1.0 4.0 0.12 0.31 0.27 100 1018.5
20180219225903 48 178 2.0 4.0 0.12 0.31 0.27 100 1018.6
20180219225703 48 184 2.0 4.0 0.12 0.30 0.26 100 1018.6
20180219225502 48 180 2.0 4.0 0.12 0.30 0.26 100 1018.6
20180219225303 48 185 2.0 3.0 0.12 0.29 0.25 100 1018.7
20180219225103 48 182 2.0 3.0 0.12 0.29 0.25 100 1018.7
20180219225003 48 181 2.0 3.0 0.12 0.29 0.25 100 1018.7
20180219224902 48 180 2.0 3.0 0.12 0.28 0.24 100 1018.6
20180219224703 48 177 2.0 3.0 0.12 0.28 0.24 100 1018.6
20180219224503 48 191 1.0 3.0 0.11 0.27 0.23 100 1018.6
20180219224302 48 170 1.0 3.0 0.12 0.27 0.23 100 1018.6
20180219224102 48 169 2.0 3.0 0.12 0.27 0.23 100 1018.6
20180219224003 48 167 2.0 3.0 0.12 0.27 0.23 100 1018.6
20180219223903 48 165 1.0 3.0 0.11 0.26 0.22 100 1018.7
20180219223702 48 170 1.0 2.0 0.11 0.26 0.22 100 1018.7
20180219223503 48 176 1.0 2.0 0.12 0.26 0.22 100 1018.8
20180219223302 48 196 1.0 2.0 0.11 0.25 0.21 100 1019.0
20180219223103 48 199 1.0 2.0 0.11 0.25 0.21 100 1019.0
20180219223002 48 202 1.0 2.0 0.11 0.25 0.21 100 1019.0
20180219222903 48 183 1.0 2.0 0.11 0.24 0.20 100 1018.9
20180219222702 48 191 1.0 2.0 0.11 0.24 0.20 100 1018.8
20180219222502 48 194 1.0 2.0 0.12 0.24 0.20 100 1018.7
20180219222303 48 189 1.0 4.0 0.11 0.23 0.19 100 1018.7
20180219222103 48 199 1.0 4.0 0.12 0.23 0.19 100 1018.7
20180219222003 48 203 1.0 4.0 0.12 0.23 0.19 100 1018.7
20180219221902 48 189 1.0 4.0 0.11 0.21 0.18 100 1018.7
20180219221703 48 180 1.0 4.0 0.11 0.21 0.18 100 1018.6
20180219221502 48 193 2.0 4.0 0.11 0.21 0.18 100 1018.6
20180219221302 48 195 1.0 3.0 0.11 0.20 0.16 100 1018.6
20180219221103 48 189 1.0 3.0 0.11 0.20 0.16 100 1018.6
20180219221002 48 187 1.0 3.0 0.11 0.20 0.16 100 1018.6
20180219220903 48 191 1.0 3.0 0.11 0.20 0.16 100 1018.6
20180219220702 48 193 1.0 3.0 0.11 0.20 0.16 100 1018.7
20180219220503 48 208 1.0 3.0 0.12 0.20 0.16 100 1018.7
20180219220302 48 196 2.0 3.0 0.11 0.19 0.15 100 1018.7
20180219220102 48 200 2.0 3.0 0.11 0.19 0.15 100 1018.7
20180219220004 48 198 2.0 3.0 0.11 0.19 0.15 100 1018.7
20180219215902 48 190 1.0 3.0 0.11 0.19 0.15 100 1018.7
20180219215702 48 174 1.0 2.0 0.10 0.18 0.14 100 1018.7
20180219215503 48 180 1.0 2.0 0.11 0.18 0.14 100 1018.7
20180219215302 48 202 1.0 2.0 0.10 0.17 0.13 100 1018.7
20180219215103 48 205 1.0 3.0 0.11 0.17 0.13 100 1018.6
20180219215003 48 199 1.0 3.0 0.11 0.17 0.13 100 1018.6
20180219214902 48 191 1.0 3.0 0.10 0.16 0.12 100 1018.6
20180219214703 48 193 2.0 3.0 0.10 0.16 0.12 100 1018.7
20180219214503 48 202 2.0 3.0 0.10 0.16 0.12 100 1018.7
20180219214303 48 191 1.0 3.0 0.10 0.16 0.12 100 1018.7
20180219214102 48 189 1.0 3.0 0.09 0.15 0.11 100 1018.7
20180219214003 48 187 1.0 3.0 0.09 0.15 0.11 100 1018.7
20180219213903 48 164 1.0 3.0 0.09 0.15 0.11 100 1018.7
20180219213703 48 192 1.0 3.0 0.09 0.15 0.11 100 1018.8
20180219213503 48 180 2.0 3.0 0.08 0.14 0.10 100 1018.8
20180219213303 48 188 1.0 3.0 0.08 0.14 0.10 100 1018.8
20180219213102 48 197 1.0 3.0 0.08 0.14 0.10 100 1018.8
20180219213003 48 195 1.0 3.0 0.08 0.14 0.10 100 1018.8
20180219212903 48 210 1.0 5.0 0.07 0.13 0.09 100 1018.8
20180219212703 48 187 1.0 5.0 0.07 0.13 0.09 100 1018.8
20180219212503 48 204 2.0 5.0 0.07 0.13 0.09 100 1018.8
20180219212303 48 190 1.0 5.0 0.06 0.12 0.08 100 1018.8
20180219212103 48 188 2.0 5.0 0.07 0.12 0.08 100 1018.8
20180219212003 48 188 2.0 5.0 0.07 0.12 0.08 100 1018.8
20180219211902 48 191 1.0 3.0 0.06 0.10 0.07 100 1018.8
20180219211702 48 194 1.0 3.0 0.06 0.10 0.07 100 1018.8
20180219211502 48 201 1.0 3.0 0.06 0.10 0.07 100 1018.7
20180219211302 48 198 1.0 3.0 0.04 0.09 0.06 100 1018.7
20180219211102 48 204 2.0 3.0 0.04 0.09 0.06 100 1018.6
20180219211003 48 204 2.0 3.0 0.04 0.09 0.06 100 1018.6
20180219210903 48 195 1.0 3.0 0.04 0.09 0.06 100 1018.6
20180219210703 48 185 2.0 3.0 0.04 0.09 0.06 100 1018.6
20180219210503 48 195 2.0 5.0 0.04 0.09 0.06 100 1018.6
20180219210303 48 180 2.0 5.0 0.03 0.08 0.04 100 1018.5
20180219210103 48 184 2.0 5.0 0.03 0.08 0.04 100 1018.4
20180219210003 48 186 2.0 5.0 0.03 0.08 0.04 100 1018.4
20180219205902 48 196 2.0 5.0 0.03 0.08 0.04 100 1018.3
20180219205703 48 176 3.0 5.0 0.03 0.08 0.04 100 1018.4
20180219205502 48 182 2.0 4.0 0.02 0.07 0.03 100 1018.4
20180219205303 48 198 2.0 4.0 0.02 0.07 0.03 100 1018.4
20180219205103 48 171 2.0 4.0 0.02 0.07 0.03 100 1018.3
20180219205003 48 172 2.0 4.0 0.02 0.07 0.03 100 1018.3
20180219204902 48 184 2.0 4.0 0.01 0.06 0.02 100 1018.2
20180219204703 48 158 3.0 4.0 0.01 0.06 0.02 100 1018.1
20180219204503 48 175 2.0 4.0 0.01 0.06 0.02 100 1018.2
20180219204303 48 175 2.0 3.0 0.01 0.06 0.02 100 1018.4
20180219204102 48 191 2.0 3.0 0.01 0.06 0.02 100 1018.4
20180219204002 48 191 2.0 3.0 0.01 0.06 0.02 100 1018.4
20180219203903 48 182 2.0 3.0 0.01 0.06 0.02 100 1018.4
20180219203702 48 197 2.0 3.0 0.01 0.06 0.02 100 1018.5
20180219203503 48 194 2.0 4.0 0.01 0.06 0.02 100 1018.5
20180219203303 48 166 2.0 4.0 0.01 0.06 0.02 100 1018.5
20180219203103 48 180 2.0 4.0 0.01 0.06 0.02 100 1018.6
20180219203003 48 179 2.0 4.0 0.01 0.06 0.02 100 1018.6
20180219202902 48 187 2.0 4.0 0.01 0.06 0.02 100 1018.5
20180219202702 48 185 2.0 4.0 0.01 0.06 0.02 100 1018.4
20180219202503 48 190 2.0 4.0 0.01 0.06 0.02 100 1018.4
20180219202303 48 185 1.0 3.0 0.01 0.06 0.02 100 1018.5
20180219202102 48 195 2.0 3.0 0.01 0.06 0.02 100 1018.5
20180219202002 48 195 2.0 3.0 0.01 0.06 0.02 100 1018.5
20180219201903 48 182 1.0 3.0 0.00 0.05 0.01 100 1018.5
20180219201703 48 187 2.0 3.0 0.00 0.05 0.01 100 1018.5
20180219201502 48 184 2.0 3.0 0.00 0.05 0.01 100 1018.5
20180219201302 48 183 2.0 4.0 0.01 0.05 0.01 100 1018.5
20180219201102 48 189 2.0 4.0 0.01 0.05 0.01 100 1018.6
20180219201002 48 194 2.0 4.0 0.01 0.05 0.01 100 1018.6
20180219200903 48 196 2.0 4.0 0.01 0.05 0.01 100 1018.6
20180219200703 48 186 1.0 4.0 0.01 0.05 0.01 100 1018.6
20180219200503 48 189 2.0 4.0 0.01 0.05 0.01 100 1018.6
20180219200303 48 199 2.0 3.0 0.01 0.05 0.01 100 1018.6
20180219200102 48 204 2.0 3.0 0.01 0.05 0.01 100 1018.6
20180219200002 48 207 1.0 3.0 0.01 0.05 0.01 100 1018.6
20180219195903 48 195 2.0 4.0 0.01 0.05 0.01 100 1018.6
20180219195703 48 183 2.0 4.0 0.01 0.05 0.01 100 1018.7
20180219195503 47 188 2.0 4.0 0.01 0.05 0.01 100 1018.8
20180219195302 47 193 1.0 4.0 0.01 0.05 0.01 100 1018.9
20180219195102 47 180 2.0 4.0 0.01 0.05 0.01 100 1018.9
20180219195003 47 184 2.0 4.0 0.01 0.05 0.01 100 1018.9
20180219194903 47 217 2.0 4.0 0.01 0.05 0.01 100 1018.8
20180219194703 47 187 1.0 4.0 0.01 0.05 0.01 100 1018.9
20180219194502 47 174 2.0 4.0 0.01 0.05 0.01 100 1018.9
20180219194302 47 197 2.0 4.0 0.01 0.05 0.01 100 1018.7
20180219194103 47 189 2.0 4.0 0.01 0.05 0.01 100 1018.8
20180219194002 47 195 2.0 4.0 0.01 0.05 0.01 100 1018.8
20180219193903 47 191 2.0 4.0 0.01 0.05 0.01 100 1018.8
20180219193703 47 176 2.0 4.0 0.01 0.05 0.01 100 1018.8
20180219193502 47 186 2.0 4.0 0.01 0.05 0.01 100 1018.8
20180219193302 47 185 2.0 4.0 0.01 0.05 0.01 100 1018.9
20180219193103 47 196 2.0 4.0 0.01 0.05 0.01 100 1018.9
20180219193002 47 193 2.0 4.0 0.01 0.05 0.01 100 1018.9
20180219192903 47 197 2.0 4.0 0.01 0.05 0.01 100 1018.9
20180219192702 47 194 2.0 3.0 0.01 0.05 0.01 100 1018.7
20180219192503 47 180 1.0 3.0 0.01 0.05 0.01 100 1018.7
20180219192302 47 207 1.0 4.0 0.01 0.05 0.01 100 1018.8
20180219192103 47 204 1.0 4.0 0.01 0.05 0.01 100 1018.7
20180219192003 47 191 1.0 4.0 0.01 0.05 0.01 100 1018.7
20180219191902 47 191 1.0 4.0 0.01 0.05 0.01 100 1018.8
20180219191703 47 205 1.0 4.0 0.01 0.05 0.01 100 1018.7
20180219191503 47 196 2.0 4.0 0.01 0.05 0.01 100 1018.6
20180219191303 46 166 1.0 4.0 0.00 0.04 0.00 100 1018.7
20180219191103 46 180 1.0 6.0 0.00 0.04 0.00 100 1019.0
20180219191003 46 180 1.0 6.0 0.00 0.04 0.00 100 1019.0
20180219190903 47 187 2.0 6.0 0.00 0.04 0.00 100 1019.1
20180219190703 47 194 2.0 6.0 0.00 0.04 0.00 100 1019.2
20180219190503 47 195 2.0 6.0 0.00 0.04 0.00 100 1019.3
20180219190302 47 222 2.0 6.0 0.00 0.04 0.00 100 1019.2
20180219190103 47 211 2.0 3.0 0.00 0.04 0.00 100 1019.3
20180219190003 47 210 2.0 3.0 0.00 0.04 0.00 100 1019.3
20180219185902 47 195 2.0 3.0 0.00 0.04 0.00 100 1019.3
20180219185702 47 187 2.0 3.0 0.00 0.04 0.00 100 1019.4
20180219185502 47 193 2.0 3.0 0.00 0.04 0.00 100 1019.4
20180219185302 47 185 2.0 3.0 0.00 0.04 0.00 100 1019.4
20180219185103 47 188 2.0 4.0 0.00 0.04 0.00 100 1019.4
20180219185002 47 188 2.0 4.0 0.00 0.04 0.00 100 1019.3
20180219184903 47 189 2.0 4.0 0.00 0.04 0.00 100 1019.4
20180219184703 47 172 2.0 4.0 0.00 0.04 0.00 100 1019.3
20180219184503 47 177 1.0 4.0 0.00 0.04 0.00 99 1019.4
20180219184303 47 193 2.0 4.0 0.00 0.04 0.00 99 1019.4
20180219184103 47 180 2.0 4.0 0.00 0.04 0.00 99 1019.4
20180219184003 47 182 2.0 4.0 0.00 0.04 0.00 99 1019.4
20180219183902 47 186 2.0 4.0 0.00 0.04 0.00 99 1019.4
20180219183703 47 185 2.0 4.0 0.00 0.04 0.00 99 1019.4
20180219183502 47 180 2.0 4.0 0.00 0.04 0.00 99 1019.4
20180219183303 47 204 2.0 4.0 0.00 0.04 0.00 99 1019.4
20180219183102 47 181 1.0 5.0 0.00 0.04 0.00 99 1019.3
20180219183002 47 182 1.0 5.0 0.00 0.04 0.00 99 1019.3
20180219182903 47 194 3.0 5.0 0.00 0.04 0.00 99 1019.3
20180219182702 47 169 2.0 5.0 0.00 0.04 0.00 98 1019.2
20180219182502 47 177 2.0 5.0 0.00 0.04 0.00 98 1019.3
20180219182302 47 192 2.0 5.0 0.00 0.04 0.00 98 1019.3
20180219182103 47 197 2.0 4.0 0.00 0.04 0.00 98 1019.3
20180219182003 47 203 2.0 4.0 0.00 0.04 0.00 98 1019.3
20180219181903 47 196 2.0 4.0 0.00 0.04 0.00 98 1019.3
20180219181703 47 192 2.0 4.0 0.00 0.04 0.00 98 1019.4
20180219181503 47 199 2.0 4.0 0.00 0.04 0.00 98 1019.3
20180219181303 47 189 2.0 5.0 0.00 0.04 0.00 98 1019.3
20180219181103 47 178 2.0 5.0 0.00 0.04 0.00 97 1019.2
20180219181003 47 179 2.0 5.0 0.00 0.04 0.00 97 1019.1
20180219180903 47 167 1.0 5.0 0.00 0.04 0.00 98 1019.0
20180219180703 47 191 2.0 5.0 0.00 0.04 0.00 98 1019.0
20180219180503 47 175 2.0 5.0 0.00 0.04 0.00 98 1018.9
20180219180302 47 190 2.0 4.0 0.00 0.04 0.00 98 1018.7
20180219180103 47 155 2.0 4.0 0.00 0.04 0.00 97 1018.7
20180219180003 47 153 2.0 4.0 0.00 0.04 0.00 97 1018.7
20180219175903 47 147 2.0 4.0 0.00 0.04 0.00 97 1018.6
20180219175703 47 174 2.0 4.0 0.00 0.04 0.00 96 1018.7
20180219175502 47 150 2.0 4.0 0.00 0.04 0.00 96 1018.5
20180219175302 47 166 2.0 4.0 0.00 0.04 0.00 96 1018.5
20180219175103 48 124 2.0 4.0 0.00 0.04 0.00 95 1018.4
20180219175002 48 125 2.0 4.0 0.00 0.04 0.00 96 1018.4
20180219174902 47 177 1.0 5.0 0.00 0.04 0.00 96 1018.7
20180219174702 47 135 2.0 5.0 0.00 0.04 0.00 96 1018.6
20180219174503 47 154 2.0 5.0 0.00 0.04 0.00 96 1018.6
20180219174302 48 152 3.0 5.0 0.00 0.04 0.00 96 1018.4
20180219174103 48 154 3.0 5.0 0.00 0.04 0.00 95 1018.6
20180219174003 48 158 2.0 5.0 0.00 0.04 0.00 95 1018.6
20180219173902 48 167 3.0 5.0 0.00 0.04 0.00 95 1018.7
20180219173702 48 160 2.0 5.0 0.00 0.04 0.00 94 1018.7
20180219173503 48 152 2.0 5.0 0.00 0.04 0.00 94 1018.7
20180219173303 48 158 3.0 5.0 0.00 0.04 0.00 94 1018.6
20180219173103 47 164 2.0 4.0 0.00 0.04 0.00 94 1018.6
20180219173003 47 165 2.0 4.0 0.00 0.04 0.00 94 1018.6
20180219172903 48 147 2.0 4.0 0.00 0.04 0.00 94 1018.7
20180219172703 48 151 2.0 5.0 0.00 0.04 0.00 93 1018.9
20180219172503 48 154 3.0 5.0 0.00 0.04 0.00 93 1019.2
20180219172302 48 174 2.0 5.0 0.00 0.04 0.00 92 1019.4
20180219172102 48 162 1.0 5.0 0.00 0.04 0.00 92 1019.4
20180219172002 48 156 2.0 5.0 0.00 0.04 0.00 92 1019.4
20180219171903 48 162 3.0 5.0 0.00 0.04 0.00 91 1019.4
20180219171703 48 193 2.0 4.0 0.00 0.05 0.00 92 1019.4
20180219171502 48 183 1.0 4.0 0.00 0.05 0.00 92 1019.3
20180219171303 48 158 2.0 4.0 0.00 0.05 0.00 92 1019.4
20180219171103 48 185 2.0 4.0 0.00 0.05 0.00 92 1019.5
20180219171003 48 174 2.0 4.0 0.00 0.05 0.00 92 1019.5
20180219170902 48 166 1.0 4.0 0.00 0.05 0.00 92 1019.5
20180219170703 48 161 2.0 4.0 0.00 0.05 0.00 92 1019.5
20180219170502 48 165 2.0 4.0 0.00 0.05 0.00 91 1019.5
20180219170303 48 176 1.0 3.0 0.00 0.05 0.00 90 1019.8
20180219170102 48 180 1.0 3.0 0.00 0.05 0.00 90 1019.8
20180219170003 48 185 1.0 3.0 0.00 0.05 0.00 90 1019.8
20180219165902 48 177 1.0 4.0 0.00 0.05 0.00 89 1019.7
20180219165703 48 185 1.0 4.0 0.00 0.05 0.00 89 1019.7
20180219165502 48 177 1.0 4.0 0.00 0.05 0.00 88 1019.7
20180219165303 48 165 2.0 4.0 0.00 0.05 0.00 87 1019.8
20180219165102 48 165 2.0 4.0 0.00 0.05 0.00 87 1019.8
20180219165002 48 165 2.0 4.0 0.00 0.05 0.00 87 1019.8
20180219164903 48 178 2.0 3.0 0.00 0.05 0.00 87 1019.8
20180219164702 48 176 2.0 3.0 0.00 0.05 0.00 86 1019.9
20180219164503 48 159 2.0 3.0 0.00 0.05 0.00 85 1019.9
20180219164303 48 168 2.0 4.0 0.00 0.05 0.00 84 1019.9
20180219164102 48 150 2.0 4.0 0.00 0.05 0.00 84 1019.9
20180219164002 48 158 2.0 4.0 0.00 0.05 0.00 84 1019.9
20180219163903 48 190 2.0 4.0 0.00 0.05 0.00 83 1019.9
20180219163703 48 152 2.0 5.0 0.00 0.05 0.00 82 1019.9
20180219163503 48 161 2.0 5.0 0.00 0.05 0.00 83 1019.9
20180219163302 48 185 2.0 5.0 0.00 0.05 0.00 82 1020.0
20180219163207 48 171 4.0 9.0 0.00 0.01 0.00 74 1019.6
20180219145503 44 159 3.0 6.0 0.00 0.05 0.00 80 1020.2
20180219145303 44 150 3.0 6.0 0.00 0.05 0.00 80 1020.2
20180219145103 44 165 3.0 6.0 0.00 0.05 0.00 80 1020.2
20180219145003 44 167 3.0 6.0 0.00 0.05 0.00 80 1020.2
20180219144903 43 180 2.0 5.0 0.00 0.05 0.00 79 1020.3
20180219144702 43 177 3.0 8.0 0.00 0.05 0.00 79 1020.3
20180219144502 43 171 3.0 8.0 0.00 0.05 0.00 79 1020.2
20180219144303 43 156 3.0 8.0 0.00 0.05 0.00 80 1020.2
20180219144102 43 163 3.0 8.0 0.00 0.05 0.00 80 1020.3
20180219144002 43 163 3.0 8.0 0.00 0.05 0.00 80 1020.3
20180219143903 43 162 4.0 8.0 0.00 0.05 0.00 79 1020.2
20180219143703 43 152 3.0 7.0 0.00 0.05 0.00 79 1020.3
20180219143503 43 188 3.0 7.0 0.00 0.05 0.00 79 1020.3
20180219143303 43 164 4.0 9.0 0.00 0.05 0.00 78 1020.3
20180219143102 43 157 3.0 9.0 0.00 0.05 0.00 78 1020.4
20180219143003 43 155 3.0 9.0 0.00 0.05 0.00 78 1020.4
20180219142902 43 160 4.0 9.0 0.00 0.05 0.00 78 1020.4
20180219142702 43 162 5.0 9.0 0.00 0.05 0.00 78 1020.4
20180219142502 43 177 5.0 9.0 0.00 0.05 0.00 78 1020.5
20180219142303 43 150 4.0 7.0 0.00 0.05 0.00 78 1020.6
20180219142102 43 172 4.0 7.0 0.00 0.05 0.00 78 1020.6
20180219142002 43 168 4.0 7.0 0.00 0.05 0.00 78 1020.6
20180219141903 42 177 4.0 7.0 0.00 0.05 0.00 78 1020.6
20180219141703 42 171 3.0 6.0 0.00 0.05 0.00 77 1020.6
20180219141503 42 160 3.0 6.0 0.00 0.05 0.00 78 1020.5
20180219141303 42 159 4.0 8.0 0.00 0.05 0.00 78 1020.5
20180219141102 42 165 3.0 8.0 0.00 0.05 0.00 78 1020.4
20180219141003 42 165 3.0 8.0 0.00 0.05 0.00 78 1020.4
20180219140903 42 165 3.0 8.0 0.00 0.05 0.00 78 1020.4
20180219140702 41 158 4.0 8.0 0.00 0.05 0.00 78 1020.4
20180219140502 41 164 4.0 8.0 0.00 0.05 0.00 79 1020.4
20180219140303 41 146 4.0 6.0 0.00 0.05 0.00 79 1020.3
20180219140102 41 167 3.0 6.0 0.00 0.05 0.00 80 1020.5
20180219140003 41 169 3.0 6.0 0.00 0.05 0.00 80 1020.5
20180219135902 41 160 3.0 7.0 0.00 0.05 0.00 79 1020.5
20180219135702 41 159 4.0 7.0 0.00 0.05 0.00 79 1020.6
20180219135503 41 174 3.0 7.0 0.00 0.05 0.00 79 1020.7
20180219135303 41 159 3.0 7.0 0.00 0.05 0.00 79 1020.8
20180219135102 41 153 4.0 7.0 0.00 0.05 0.00 79 1020.9
20180219135004 41 150 4.0 7.0 0.00 0.05 0.00 79 1020.9
20180219134904 41 150 4.0 8.0 0.00 0.05 0.00 79 1021.0
20180219134703 41 162 4.0 8.0 0.00 0.05 0.00 79 1020.9
20180219134503 41 150 4.0 8.0 0.00 0.05 0.00 80 1020.9
20180219134302 41 147 3.0 8.0 0.00 0.05 0.00 79 1021.0
20180219134103 40 166 4.0 8.0 0.00 0.05 0.00 79 1021.1
20180219134003 40 167 4.0 8.0 0.00 0.05 0.00 79 1021.1
20180219133903 40 159 4.0 6.0 0.00 0.05 0.00 79 1021.3
20180219133702 40 163 4.0 6.0 0.00 0.05 0.00 79 1021.2
20180219133503 40 163 4.0 6.0 0.00 0.05 0.00 79 1021.3
20180219133303 40 155 4.0 10.0 0.00 0.05 0.00 79 1021.3
20180219133103 40 163 3.0 10.0 0.00 0.05 0.00 78 1021.4
20180219133002 40 163 3.0 10.0 0.00 0.05 0.00 78 1021.4
20180219132903 40 157 3.0 10.0 0.00 0.05 0.00 78 1021.4
20180219132703 40 166 4.0 10.0 0.00 0.05 0.00 78 1021.4
20180219132503 40 150 5.0 10.0 0.00 0.05 0.00 77 1021.3
20180219132302 40 151 3.0 10.0 0.00 0.05 0.00 78 1021.2
20180219132102 40 157 4.0 10.0 0.00 0.05 0.00 78 1021.3
20180219132003 40 155 4.0 10.0 0.00 0.05 0.00 78 1021.3
20180219131903 40 158 4.0 7.0 0.00 0.05 0.00 78 1021.4
20180219131702 40 170 3.0 8.0 0.00 0.05 0.00 78 1021.4
20180219131502 40 167 4.0 8.0 0.00 0.05 0.00 77 1021.4
20180219131302 40 150 5.0 8.0 0.00 0.05 0.00 77 1021.5
20180219131103 40 175 4.0 8.0 0.00 0.05 0.00 77 1021.4
20180219131003 40 177 4.0 8.0 0.00 0.05 0.00 77 1021.4
20180219130903 40 156 4.0 8.0 0.00 0.05 0.00 77 1021.4
20180219130702 40 163 4.0 8.0 0.00 0.05 0.00 78 1021.5
20180219130502 40 152 4.0 8.0 0.00 0.05 0.00 78 1021.5
20180219130303 40 153 3.0 8.0 0.00 0.05 0.00 79 1021.6
20180219130103 40 170 3.0 8.0 0.00 0.05 0.00 78 1021.5
20180219130003 40 172 3.0 8.0 0.00 0.05 0.00 78 1021.5
20180219125903 40 165 4.0 8.0 0.00 0.05 0.00 78 1021.6
20180219125703 39 162 4.0 7.0 0.00 0.05 0.00 79 1021.6
20180219125502 39 147 4.0 7.0 0.00 0.05 0.00 79 1021.6
20180219125303 39 167 3.0 7.0 0.00 0.05 0.00 79 1021.6
20180219125102 39 169 4.0 7.0 0.00 0.05 0.00 79 1021.5
20180219125002 39 165 4.0 7.0 0.00 0.05 0.00 79 1021.5
20180219124903 39 168 4.0 7.0 0.00 0.05 0.00 79 1021.6
20180219124702 39 154 3.0 7.0 0.00 0.05 0.00 79 1021.6
20180219124502 39 155 3.0 7.0 0.00 0.05 0.00 80 1021.6
20180219124303 39 153 3.0 6.0 0.00 0.05 0.00 80 1021.4
20180219124102 39 155 4.0 7.0 0.00 0.05 0.00 80 1021.2
20180219124003 39 162 4.0 7.0 0.00 0.05 0.00 80 1021.2
20180219123903 39 162 3.0 7.0 0.00 0.05 0.00 80 1021.2
20180219123702 38 170 4.0 7.0 0.00 0.05 0.00 80 1021.3
20180219123502 38 159 4.0 7.0 0.00 0.05 0.00 80 1021.3
20180219123302 38 160 4.0 7.0 0.00 0.05 0.00 80 1021.5
20180219123103 38 154 4.0 7.0 0.00 0.05 0.00 80 1021.6
20180219123002 38 156 4.0 7.0 0.00 0.05 0.00 80 1021.6
20180219122903 38 156 3.0 8.0 0.00 0.05 0.00 81 1021.6
20180219122702 38 170 4.0 8.0 0.00 0.05 0.00 81 1021.6
20180219122502 38 162 3.0 8.0 0.00 0.05 0.00 81 1021.5
20180219122303 38 156 4.0 8.0 0.00 0.05 0.00 80 1021.4
20180219122103 38 159 5.0 8.0 0.00 0.05 0.00 80 1021.1
20180219122002 38 161 5.0 8.0 0.00 0.05 0.00 80 1021.1
20180219121903 38 165 4.0 6.0 0.00 0.05 0.00 80 1021.1
20180219121702 38 156 4.0 6.0 0.00 0.05 0.00 81 1020.9
20180219121503 38 155 3.0 6.0 0.00 0.05 0.00 81 1020.9
20180219121303 38 156 3.0 6.0 0.00 0.05 0.00 81 1020.9
20180219121103 38 155 4.0 6.0 0.00 0.05 0.00 81 1020.8
20180219121003 38 159 4.0 6.0 0.00 0.05 0.00 81 1020.8
20180219120902 38 150 3.0 6.0 0.00 0.05 0.00 82 1020.7
20180219120702 38 162 4.0 6.0 0.00 0.05 0.00 81 1020.8
20180219120503 38 150 3.0 6.0 0.00 0.05 0.00 81 1020.8
20180219120303 38 163 3.0 6.0 0.00 0.05 0.00 81 1020.8
20180219120102 38 165 3.0 6.0 0.00 0.05 0.00 80 1020.8
20180219120002 38 165 3.0 6.0 0.00 0.05 0.00 80 1020.8
20180219115903 38 155 4.0 6.0 0.00 0.05 0.00 80 1020.9
20180219115703 38 148 3.0 6.0 0.00 0.05 0.00 81 1020.9
20180219115503 38 150 4.0 6.0 0.00 0.05 0.00 81 1021.0
20180219115302 37 158 4.0 6.0 0.00 0.05 0.00 81 1021.0
20180219115103 37 143 3.0 6.0 0.00 0.05 0.00 82 1021.0
20180219115003 37 142 3.0 6.0 0.00 0.05 0.00 81 1021.0
20180219114902 37 143 4.0 7.0 0.00 0.05 0.00 81 1021.0
20180219114703 37 159 3.0 7.0 0.00 0.05 0.00 81 1021.1
20180219114503 37 155 4.0 7.0 0.00 0.05 0.00 81 1021.1
20180219114302 38 151 3.0 10.0 0.00 0.05 0.00 80 1021.3
20180219114103 38 159 4.0 10.0 0.00 0.05 0.00 80 1021.3
20180219114002 38 163 4.0 10.0 0.00 0.05 0.00 79 1021.3
20180219113903 38 163 4.0 10.0 0.00 0.05 0.00 79 1021.3
20180219113702 38 161 4.0 10.0 0.00 0.05 0.00 79 1021.4
20180219113503 38 167 5.0 10.0 0.00 0.05 0.00 79 1021.4
20180219113302 38 157 5.0 8.0 0.00 0.05 0.00 79 1021.5
20180219113103 38 163 4.0 7.0 0.00 0.05 0.00 79 1021.5
20180219113003 38 159 4.0 7.0 0.00 0.05 0.00 79 1021.5
20180219112903 38 170 4.0 6.0 0.00 0.05 0.00 79 1021.6
20180219112703 38 161 4.0 8.0 0.00 0.05 0.00 79 1021.6
20180219112503 38 155 3.0 8.0 0.00 0.05 0.00 79 1021.6
20180219112305 38 156 4.0 8.0 0.00 0.05 0.00 79 1021.5
20180219112103 38 184 3.0 8.0 0.00 0.05 0.00 79 1021.5
20180219112003 38 180 3.0 8.0 0.00 0.05 0.00 79 1021.5
20180219111903 38 166 3.0 8.0 0.00 0.05 0.00 78 1021.6
20180219111702 38 168 4.0 8.0 0.00 0.05 0.00 78 1021.6
20180219111502 38 159 3.0 8.0 0.00 0.05 0.00 78 1021.6
20180219111303 38 163 4.0 8.0 0.00 0.05 0.00 78 1021.3
20180219111102 38 150 3.0 8.0 0.00 0.05 0.00 78 1021.3
20180219111003 38 149 2.0 8.0 0.00 0.05 0.00 78 1021.3
20180219110902 38 164 3.0 8.0 0.00 0.05 0.00 77 1021.3
20180219110703 38 147 4.0 8.0 0.00 0.05 0.00 77 1021.3
20180219110502 38 154 3.0 8.0 0.00 0.05 0.00 77 1021.3
20180219110303 38 171 5.0 8.0 0.00 0.05 0.00 77 1021.1
20180219110103 38 180 4.0 6.0 0.00 0.05 0.00 78 1021.1
20180219110003 38 180 4.0 7.0 0.00 0.05 0.00 78 1021.1
20180219105903 38 165 3.0 7.0 0.00 0.05 0.00 78 1021.1
20180219105703 38 157 3.0 7.0 0.00 0.05 0.00 78 1021.1
20180219105502 38 167 4.0 7.0 0.00 0.05 0.00 77 1021.1
20180219105305 38 158 4.0 7.0 0.00 0.05 0.00 77 1021.1
20180219105103 38 152 4.0 7.0 0.00 0.05 0.00 77 1021.0
20180219105003 38 154 4.0 7.0 0.00 0.05 0.00 77 1021.0
20180219104903 38 174 4.0 7.0 0.00 0.05 0.00 76 1021.1
20180219104702 38 164 4.0 7.0 0.00 0.05 0.00 76 1021.1
20180219104502 38 155 4.0 6.0 0.00 0.05 0.00 76 1021.1
20180219104303 38 153 4.0 8.0 0.00 0.05 0.00 76 1021.2
20180219104102 38 157 3.0 8.0 0.00 0.05 0.00 77 1021.2
20180219104003 38 159 3.0 8.0 0.00 0.05 0.00 77 1021.2
20180219103902 38 187 4.0 8.0 0.00 0.05 0.00 77 1021.2
20180219103703 38 164 3.0 8.0 0.00 0.05 0.00 76 1021.2
20180219103502 38 157 4.0 8.0 0.00 0.05 0.00 76 1021.0
20180219103302 38 165 4.0 8.0 0.00 0.05 0.00 76 1021.0
20180219103103 38 159 3.0 8.0 0.00 0.05 0.00 76 1021.0
20180219103003 38 159 3.0 8.0 0.00 0.05 0.00 76 1021.0
20180219102902 38 171 4.0 8.0 0.00 0.05 0.00 76 1021.0
20180219102703 38 166 4.0 8.0 0.00 0.05 0.00 75 1021.2
20180219102503 38 170 4.0 8.0 0.00 0.05 0.00 75 1021.2
20180219102303 38 170 4.0 8.0 0.00 0.05 0.00 75 1021.2
20180219102102 38 182 4.0 8.0 0.00 0.05 0.00 75 1021.4
20180219102003 38 180 4.0 8.0 0.00 0.05 0.00 75 1021.4
20180219101903 38 175 4.0 8.0 0.00 0.05 0.00 76 1021.5
20180219101703 38 156 4.0 8.0 0.00 0.05 0.00 76 1021.4
20180219101503 38 147 4.0 5.0 0.00 0.05 0.00 77 1021.4
20180219101302 37 154 4.0 6.0 0.00 0.05 0.00 77 1021.4
20180219101102 37 153 3.0 6.0 0.00 0.05 0.00 77 1021.4
20180219101003 37 153 3.0 6.0 0.00 0.05 0.00 77 1021.4
20180219100903 38 158 2.0 8.0 0.00 0.05 0.00 77 1021.4
20180219100702 38 162 3.0 8.0 0.00 0.05 0.00 76 1021.4
20180219100503 38 174 3.0 8.0 0.00 0.05 0.00 75 1021.4
20180219100302 38 157 3.0 8.0 0.00 0.05 0.00 75 1021.4
20180219100103 38 155 4.0 8.0 0.00 0.05 0.00 75 1021.4
20180219100003 38 153 4.0 8.0 0.00 0.05 0.00 75 1021.4
20180219095902 38 170 3.0 6.0 0.00 0.05 0.00 75 1021.4
20180219095703 38 198 3.0 6.0 0.00 0.05 0.00 75 1021.3
20180219095503 38 167 3.0 6.0 0.00 0.05 0.00 75 1021.3
20180219095303 38 153 3.0 6.0 0.00 0.05 0.00 75 1021.4
20180219095102 38 158 3.0 6.0 0.00 0.05 0.00 75 1021.4
20180219095003 38 162 3.0 6.0 0.00 0.05 0.00 75 1021.4
20180219094902 38 165 3.0 6.0 0.00 0.05 0.00 75 1021.4
20180219094703 38 174 3.0 6.0 0.00 0.05 0.00 75 1021.4
20180219094502 38 171 3.0 6.0 0.00 0.05 0.00 74 1021.4
20180219094303 38 165 3.0 6.0 0.00 0.05 0.00 75 1021.1
20180219094102 38 176 2.0 6.0 0.00 0.05 0.00 74 1021.2
20180219094002 38 175 2.0 6.0 0.00 0.05 0.00 74 1021.2
20180219093903 38 174 4.0 8.0 0.00 0.05 0.00 74 1021.2
20180219093702 38 165 3.0 8.0 0.00 0.05 0.00 74 1021.0
20180219093504 38 182 4.0 8.0 0.00 0.05 0.00 74 1021.0
20180219093303 38 154 4.0 8.0 0.00 0.05 0.00 74 1020.9
20180219093104 38 151 4.0 8.0 0.00 0.05 0.00 74 1020.9
20180219093003 38 151 4.0 8.0 0.00 0.05 0.00 74 1020.9
20180219092903 38 157 3.0 7.0 0.00 0.05 0.00 74 1020.9
20180219092703 38 157 4.0 7.0 0.00 0.05 0.00 74 1020.8
20180219092502 38 157 4.0 7.0 0.00 0.05 0.00 74 1020.9
20180219092306 38 158 4.0 7.0 0.00 0.05 0.00 74 1020.9
20180219092103 38 160 4.0 7.0 0.00 0.05 0.00 74 1020.8
20180219091908 38 165 4.0 8.0 0.00 0.05 0.00 74 1020.8
20180219091503 38 152 3.0 8.0 0.00 0.05 0.00 74 1020.8
20180219091303 38 161 4.0 8.0 0.00 0.05 0.00 74 1020.9
20180219091102 38 152 4.0 8.0 0.00 0.05 0.00 74 1020.9
20180219091002 38 152 4.0 8.0 0.00 0.05 0.00 74 1021.0
20180219090903 37 164 4.0 8.0 0.00 0.05 0.00 74 1021.0
20180219090704 37 166 4.0 8.0 0.00 0.05 0.00 75 1021.0
20180219090504 37 156 3.0 8.0 0.00 0.05 0.00 75 1021.0
20180219090303 37 155 3.0 8.0 0.00 0.05 0.00 75 1021.1
20180219090103 37 146 3.0 8.0 0.00 0.05 0.00 75 1021.1
20180219090003 37 145 4.0 8.0 0.00 0.05 0.00 75 1021.1
20180219085903 37 171 3.0 8.0 0.00 0.05 0.00 75 1021.2
20180219085702 37 170 4.0 7.0 0.00 0.05 0.00 75 1021.2
20180219085503 37 177 3.0 7.0 0.00 0.05 0.00 75 1021.2
20180219085305 37 143 3.0 7.0 0.00 0.05 0.00 75 1021.3
20180219085105 37 155 4.0 7.0 0.00 0.05 0.00 74 1021.3
20180219085002 37 156 4.0 7.0 0.00 0.05 0.00 74 1021.3
20180219084903 37 162 2.0 7.0 0.00 0.05 0.00 75 1021.3
20180219084702 37 172 3.0 7.0 0.00 0.05 0.00 75 1021.3
20180219084503 37 164 4.0 7.0 0.00 0.05 0.00 75 1021.4
20180219084302 37 169 3.0 7.0 0.00 0.05 0.00 75 1021.4
20180219084103 37 160 3.0 6.0 0.00 0.05 0.00 75 1021.3
20180219084003 37 161 3.0 6.0 0.00 0.05 0.00 75 1021.3
20180219083902 37 155 3.0 6.0 0.00 0.05 0.00 76 1021.4
20180219083703 37 153 3.0 7.0 0.00 0.05 0.00 75 1021.4
20180219083503 37 163 3.0 7.0 0.00 0.05 0.00 76 1021.5
20180219083303 37 158 2.0 7.0 0.00 0.05 0.00 76 1021.5
20180219083102 37 150 4.0 7.0 0.00 0.05 0.00 75 1021.5
20180219083002 37 155 4.0 7.0 0.00 0.05 0.00 75 1021.5
20180219082903 37 179 4.0 7.0 0.00 0.05 0.00 76 1021.5
20180219082703 37 167 2.0 5.0 0.00 0.05 0.00 77 1021.5
20180219082503 37 178 2.0 5.0 0.00 0.05 0.00 76 1021.5
20180219082305 36 159 3.0 6.0 0.00 0.05 0.00 77 1021.5
20180219082110 37 158 3.0 6.0 0.00 0.05 0.00 77 1021.6
20180219082003 37 151 2.0 6.0 0.00 0.05 0.00 77 1021.6
20180219081904 36 164 2.0 6.0 0.00 0.05 0.00 76 1021.6
20180219081710 36 182 3.0 6.0 0.00 0.05 0.00 76 1021.6
20180219081506 36 169 4.0 6.0 0.00 0.05 0.00 77 1021.4
20180219081303 36 169 3.0 6.0 0.00 0.05 0.00 77 1021.7
20180219081103 36 154 2.0 5.0 0.00 0.05 0.00 77 1021.8
20180219081005 36 158 2.0 5.0 0.00 0.05 0.00 77 1021.8
20180219080903 36 180 2.0 5.0 0.00 0.05 0.00 77 1021.9
20180219080703 36 186 2.0 5.0 0.00 0.05 0.00 77 1021.9
20180219080504 36 182 3.0 6.0 0.00 0.05 0.00 77 1022.0
20180219080303 36 164 2.0 6.0 0.00 0.05 0.00 77 1022.0
20180219080103 36 180 2.0 6.0 0.00 0.05 0.00 77 1022.0
20180219080005 36 180 2.0 6.0 0.00 0.05 0.00 77 1022.0
20180219075902 36 187 2.0 6.0 0.00 0.05 0.00 76 1022.0
20180219075702 36 176 3.0 6.0 0.00 0.05 0.00 77 1022.0
20180219075503 36 163 3.0 5.0 0.00 0.05 0.00 77 1022.1
20180219075302 36 171 2.0 5.0 0.00 0.05 0.00 78 1022.1
20180219075102 36 172 2.0 5.0 0.00 0.05 0.00 77 1022.2
20180219075003 36 176 2.0 5.0 0.00 0.05 0.00 77 1022.2
20180219074903 36 163 2.0 5.0 0.00 0.05 0.00 78 1022.2
20180219074703 36 180 2.0 5.0 0.00 0.05 0.00 77 1022.2
20180219074503 36 180 2.0 5.0 0.00 0.05 0.00 77 1022.1
20180219074302 36 177 2.0 5.0 0.00 0.05 0.00 77 1022.2
20180219074103 36 145 1.0 5.0 0.00 0.05 0.00 77 1022.1
20180219074003 36 145 1.0 5.0 0.00 0.05 0.00 77 1022.1
20180219073903 36 149 2.0 5.0 0.00 0.05 0.00 77 1022.2
20180219073702 35 165 3.0 5.0 0.00 0.05 0.00 77 1022.3
20180219073503 35 173 3.0 5.0 0.00 0.05 0.00 77 1022.3
20180219073303 35 184 2.0 4.0 0.00 0.05 0.00 77 1022.2
20180219073103 35 172 2.0 5.0 0.00 0.05 0.00 77 1022.3
20180219073003 35 163 2.0 5.0 0.00 0.05 0.00 77 1022.3
20180219072904 35 181 2.0 5.0 0.00 0.05 0.00 77 1022.3
20180219072703 35 199 2.0 5.0 0.00 0.05 0.00 77 1022.2
20180219072504 35 164 2.0 5.0 0.00 0.05 0.00 78 1022.3
20180219072306 35 171 3.0 5.0 0.00 0.05 0.00 77 1022.4
20180219072103 35 164 2.0 5.0 0.00 0.05 0.00 77 1022.5
20180219072002 35 159 2.0 5.0 0.00 0.05 0.00 77 1022.5
20180219071903 35 199 2.0 5.0 0.00 0.05 0.00 76 1022.6
20180219071702 35 195 2.0 5.0 0.00 0.05 0.00 77 1022.6
20180219071502 35 175 2.0 5.0 0.00 0.05 0.00 77 1022.6
20180219071303 35 149 2.0 4.0 0.00 0.05 0.00 77 1022.5
20180219071103 35 164 2.0 4.0 0.00 0.05 0.00 77 1022.7
20180219071003 35 162 2.0 4.0 0.00 0.05 0.00 77 1022.7
20180219070903 35 158 2.0 6.0 0.00 0.05 0.00 76 1022.8
20180219070703 35 194 2.0 6.0 0.00 0.05 0.00 75 1022.9
20180219070502 35 176 2.0 6.0 0.00 0.05 0.00 75 1023.0
20180219070302 35 171 2.0 6.0 0.00 0.05 0.00 74 1023.0
20180219070103 35 173 3.0 6.0 0.00 0.05 0.00 75 1023.0
20180219070002 35 173 3.0 6.0 0.00 0.05 0.00 75 1023.0
20180219065903 35 184 3.0 6.0 0.00 0.05 0.00 75 1023.0
20180219065702 35 175 2.0 6.0 0.00 0.05 0.00 75 1023.1
20180219065502 35 189 2.0 6.0 0.00 0.05 0.00 74 1023.0
20180219065303 35 195 2.0 6.0 0.00 0.05 0.00 74 1023.0
20180219065102 35 171 3.0 6.0 0.00 0.05 0.00 74 1023.0
20180219065003 35 178 3.0 6.0 0.00 0.05 0.00 74 1022.9
20180219064903 35 157 3.0 6.0 0.00 0.05 0.00 74 1022.9
20180219064703 35 167 2.0 6.0 0.00 0.05 0.00 74 1022.9
20180219064503 35 159 2.0 6.0 0.00 0.05 0.00 74 1022.8
20180219064303 34 171 2.0 6.0 0.00 0.05 0.00 74 1022.8
20180219064102 34 173 3.0 6.0 0.00 0.05 0.00 73 1022.9
20180219064003 34 175 3.0 6.0 0.00 0.05 0.00 73 1022.9
20180219063903 34 179 2.0 5.0 0.00 0.05 0.00 74 1023.1
20180219063703 34 164 2.0 5.0 0.00 0.05 0.00 73 1023.2
20180219063502 34 152 1.0 4.0 0.00 0.05 0.00 73 1023.3
20180219063303 34 210 1.0 4.0 0.00 0.05 0.00 72 1023.4
20180219063102 34 172 2.0 4.0 0.00 0.05 0.00 72 1023.4
20180219063003 34 165 2.0 4.0 0.00 0.05 0.00 72 1023.4
20180219062902 34 177 2.0 4.0 0.00 0.05 0.00 71 1023.4
20180219062703 34 176 1.0 5.0 0.00 0.05 0.00 71 1023.3
20180219062503 34 175 2.0 5.0 0.00 0.05 0.00 70 1023.2
20180219062302 34 174 2.0 5.0 0.00 0.05 0.00 70 1023.1
20180219062102 34 151 2.0 5.0 0.00 0.05 0.00 70 1023.1
20180219062003 34 151 2.0 5.0 0.00 0.05 0.00 70 1023.1
20180219061903 34 171 2.0 5.0 0.00 0.05 0.00 70 1023.1
20180219061702 34 159 2.0 4.0 0.00 0.05 0.00 70 1023.1
20180219061503 34 144 2.0 5.0 0.00 0.05 0.00 70 1023.0
20180219061302 34 136 2.0 5.0 0.00 0.05 0.00 70 1023.0
20180219061102 34 159 2.0 5.0 0.00 0.05 0.00 70 1023.1
20180219061003 34 164 2.0 5.0 0.00 0.05 0.00 70 1023.1
20180219060903 34 173 2.0 5.0 0.00 0.05 0.00 70 1023.1
20180219060703 34 156 2.0 5.0 0.00 0.05 0.00 70 1023.1
20180219060502 34 150 2.0 4.0 0.00 0.05 0.00 71 1023.1
20180219060303 34 157 2.0 4.0 0.00 0.05 0.00 70 1023.1
20180219060103 34 148 2.0 4.0 0.00 0.05 0.00 70 1023.1
20180219060003 34 144 2.0 4.0 0.00 0.05 0.00 70 1023.1
20180219055902 33 150 2.0 4.0 0.00 0.05 0.00 70 1023.1
20180219055703 33 123 2.0 4.0 0.00 0.05 0.00 70 1023.1
20180219055502 33 126 2.0 4.0 0.00 0.05 0.00 71 1023.1
20180219055302 33 141 2.0 4.0 0.00 0.05 0.00 72 1023.3
20180219055103 33 149 2.0 5.0 0.00 0.05 0.00 72 1023.3
20180219055002 33 149 2.0 5.0 0.00 0.05 0.00 71 1023.3
20180219054903 33 158 2.0 5.0 0.00 0.05 0.00 72 1023.3
20180219054703 33 130 2.0 5.0 0.00 0.05 0.00 72 1023.4
20180219054503 33 132 2.0 5.0 0.00 0.05 0.00 72 1023.4
20180219054303 33 130 2.0 5.0 0.00 0.05 0.00 72 1023.5
20180219054102 33 125 2.0 4.0 0.00 0.05 0.00 73 1023.6
20180219054003 33 132 2.0 4.0 0.00 0.05 0.00 73 1023.6
20180219053902 33 141 2.0 4.0 0.00 0.05 0.00 73 1023.7
20180219053703 33 129 2.0 4.0 0.00 0.05 0.00 74 1023.8
20180219053502 33 133 1.0 5.0 0.00 0.05 0.00 73 1023.8
20180219053303 33 147 2.0 5.0 0.00 0.05 0.00 72 1023.9
20180219053103 34 147 2.0 6.0 0.00 0.05 0.00 72 1023.9
20180219053003 34 145 2.0 6.0 0.00 0.05 0.00 72 1023.9
20180219052903 34 145 2.0 6.0 0.00 0.05 0.00 72 1024.0
20180219052702 34 152 3.0 7.0 0.00 0.05 0.00 71 1024.1
20180219052502 34 135 2.0 7.0 0.00 0.05 0.00 71 1024.1
20180219052303 33 151 3.0 7.0 0.00 0.05 0.00 71 1024.2
20180219052103 33 144 3.0 7.0 0.00 0.05 0.00 71 1024.3
20180219052003 33 145 3.0 7.0 0.00 0.05 0.00 71 1024.3
20180219051902 33 146 2.0 7.0 0.00 0.05 0.00 73 1024.4
20180219051702 33 148 3.0 7.0 0.00 0.05 0.00 73 1024.4
20180219051502 33 139 2.0 4.0 0.00 0.05 0.00 73 1024.4
20180219051303 33 160 2.0 4.0 0.00 0.05 0.00 73 1024.4
20180219051102 33 140 2.0 4.0 0.00 0.05 0.00 75 1024.4
20180219051003 33 141 2.0 4.0 0.00 0.05 0.00 75 1024.4
20180219050902 33 123 2.0 4.0 0.00 0.05 0.00 75 1024.5
20180219050703 33 143 2.0 5.0 0.00 0.05 0.00 75 1024.6
20180219050502 32 137 2.0 5.0 0.00 0.05 0.00 76 1024.6
20180219050302 32 134 2.0 5.0 0.00 0.05 0.00 76 1024.6
20180219050103 32 147 2.0 5.0 0.00 0.05 0.00 76 1024.6
20180219050002 32 147 2.0 5.0 0.00 0.05 0.00 76 1024.6
20180219045903 32 140 2.0 5.0 0.00 0.05 0.05 77 1024.7
20180219045702 32 132 2.0 4.0 0.00 0.05 0.05 78 1024.6
20180219045503 32 135 2.0 4.0 0.00 0.05 0.05 79 1024.6
20180219045302 32 147 2.0 4.0 0.00 0.05 0.05 80 1024.8
20180219045103 32 154 2.0 4.0 0.00 0.05 0.05 80 1024.8
20180219045003 32 163 2.0 4.0 0.00 0.05 0.05 80 1024.8
20180219044902 32 148 2.0 4.0 0.00 0.05 0.05 81 1024.9
20180219044703 32 135 2.0 4.0 0.00 0.05 0.05 82 1025.0
20180219044503 32 132 2.0 4.0 0.00 0.05 0.05 83 1025.0
20180219044302 32 124 2.0 4.0 0.00 0.05 0.05 83 1025.1
20180219044102 32 137 2.0 3.0 0.00 0.05 0.05 85 1025.2
20180219044003 32 137 2.0 3.0 0.00 0.05 0.05 85 1025.2
20180219043903 32 145 1.0 4.0 0.00 0.05 0.05 85 1025.2
20180219043702 32 140 2.0 4.0 0.00 0.05 0.05 85 1025.2
20180219043503 32 150 1.0 4.0 0.00 0.05 0.05 86 1025.3
20180219043303 32 143 2.0 4.0 0.00 0.05 0.05 86 1025.2
20180219043102 32 142 2.0 4.0 0.00 0.05 0.05 87 1025.2
20180219043003 32 145 2.0 4.0 0.00 0.05 0.05 87 1025.2
20180219042903 32 148 1.0 3.0 0.00 0.05 0.05 87 1025.2
20180219042703 32 146 2.0 4.0 0.00 0.05 0.05 87 1025.3
20180219042502 32 146 2.0 4.0 0.00 0.05 0.05 87 1025.3
20180219042303 32 142 1.0 4.0 0.00 0.05 0.05 86 1025.2
20180219042102 32 133 2.0 4.0 0.00 0.05 0.05 85 1025.1
20180219042003 32 135 2.0 4.0 0.00 0.05 0.05 85 1025.1
20180219041902 32 152 2.0 4.0 0.00 0.05 0.05 86 1025.2
20180219041703 32 138 2.0 4.0 0.00 0.05 0.05 87 1025.2
20180219041503 32 145 2.0 4.0 0.00 0.05 0.05 87 1025.2
20180219041302 32 150 2.0 4.0 0.00 0.05 0.05 88 1025.2
20180219041103 32 148 2.0 4.0 0.00 0.05 0.05 88 1025.3
20180219041003 32 146 2.0 4.0 0.00 0.05 0.05 88 1025.3
20180219040903 32 132 2.0 4.0 0.00 0.05 0.05 88 1025.3
20180219040703 32 163 2.0 4.0 0.00 0.05 0.05 88 1025.2
20180219040503 31 150 2.0 4.0 0.00 0.05 0.05 88 1025.2
20180219040302 31 131 2.0 4.0 0.00 0.05 0.05 90 1025.4
20180219040103 31 145 2.0 4.0 0.00 0.05 0.05 90 1025.3
20180219040003 31 143 2.0 4.0 0.00 0.05 0.05 90 1025.3
20180219035902 31 142 1.0 4.0 0.00 0.05 0.05 90 1025.4
20180219035703 31 135 2.0 4.0 0.00 0.05 0.05 90 1025.5
20180219035502 31 140 1.0 4.0 0.00 0.05 0.05 90 1025.5
20180219035303 31 138 2.0 4.0 0.00 0.05 0.05 90 1025.5
20180219035103 31 138 1.0 3.0 0.00 0.05 0.05 91 1025.6
20180219035003 31 139 1.0 3.0 0.00 0.05 0.05 91 1025.6
20180219034902 31 144 2.0 3.0 0.00 0.05 0.05 91 1025.6
20180219034703 31 156 2.0 3.0 0.00 0.05 0.05 91 1025.6
20180219034502 31 139 2.0 3.0 0.00 0.05 0.05 91 1025.7
20180219034302 31 150 2.0 3.0 0.00 0.05 0.05 91 1025.7
20180219034102 31 144 2.0 3.0 0.00 0.05 0.05 91 1025.8
20180219034002 31 143 2.0 3.0 0.00 0.05 0.05 91 1025.8
20180219033903 30 135 2.0 3.0 0.00 0.05 0.05 91 1025.8
20180219033703 30 144 2.0 3.0 0.00 0.05 0.05 92 1025.9
20180219033502 30 146 2.0 3.0 0.00 0.05 0.05 92 1025.9